Wind_Speed
28 28 31 22 23 23 27 27 29 30 28 29 27 24 9 10 16 16 16 14 14 23 19 15 14 12 11 10 7 6 6 6 7 7 9 9 10 9 8 7 7 6 6
26 26 30 24 24 23 27 27 29 29 29 30 25 23 12 12 15 14 16 14 18 23 19 17 16 14 12 10 7 7 6 7 8 9 9 9 9 9 9 9 9 9 8
24 28 26 29 29 26 24 29 27 29 31 27 25 20 17 15 26 17 22 20 22 23 22 19 18 16 14 11 7 5 7 8 8 8 8 9 9 9 9 9 10 10 10
23 24 28 29 28 27 21 25 25 28 28 27 28 20 20 21 25 25 22 25 25 25 22 21 20 18 15 11 9 7 8 9 10 10 10 9 9 10 9 8 9 9 9
23 24 28 20 22 22 21 27 27 27 28 31 29 18 22 22 28 16 18 29 24 28 24 21 20 19 16 14 11 10 11 11 11 11 12 11 11 10 10 8 7 7 8
21 23 18 18 20 20 19 24 26 26 30 37 38 32 35 23 20 16 16 25 26 31 25 23 22 20 18 16 14 14 14 13 13 13 13 13 13 13 13 12 12 12 11
19 19 17 15 13 11 15 23 30 25 34 35 24 31 32 24 25 24 19 20 28 29 26 26 24 22 20 18 16 17 17 16 15 14 15 15 15 15 15 14 14 13 12
17 17 16 12 16 11 19 20 13 35 35 35 27 28 43 35 27 26 25 29 33 30 28 27 25 24 22 20 20 19 19 19 18 17 17 17 17 17 16 16 15 15 14
16 16 15 13 10 15 13 18 21 15 45 31 34 26 26 25 24 19 27 30 30 30 30 27 27 25 23 22 21 20 20 20 19 19 20 19 19 18 18 18 18 17 17
15 15 15 12 11 16 15 16 16 17 17 37 35 32 30 26 26 23 25 26 32 34 28 28 26 24 23 23 22 21 21 21 21 21 21 20 19 18 17 17 18 17 15
14 14 15 14 12 17 17 19 20 18 22 25 34 40 38 39 36 34 30 29 34 32 28 27 26 25 24 23 22 21 22 22 21 21 20 19 18 18 19 20 21 20 18
15 14 14 15 15 16 18 21 22 27 27 25 24 30 30 36 39 35 31 32 27 25 26 26 26 26 24 23 23 23 23 22 22 22 21 21 21 21 23 23 23 22 20
15 15 15 15 16 14 19 20 17 14 20 28 40 33 34 34 30 28 27 28 30 27 25 26 26 26 25 24 25 25 24 24 23 23 23 23 24 26 26 25 25 23 21
16 15 15 16 16 17 16 15 18 14 9 16 11 15 13 12 21 22 22 22 23 24 27 28 28 28 28 27 26 26 25 25 24 24 25 25 25 27 28 28 28 25 23
19 15 15 15 17 18 19 17 18 17 14 16 16 14 10 18 19 20 21 22 25 27 29 30 29 29 28 28 28 28 27 27 27 27 27 28 28 30 32 32 32 30 28
23 21 18 17 17 20 20 21 21 21 21 21 21 22 23 22 20 25 28 30 30 30 31 30 30 31 30 30 29 30 30 30 30 29 30 30 31 32 34 35 35 34 34
30 27 24 23 22 20 21 22 23 24 26 24 24 24 26 28 31 33 35 35 36 33 32 32 32 31 32 31 32 33 32 31 31 32 32 32 34 35 36 36 36 37 37
37 34 33 29 27 25 23 24 24 25 26 27 28 28 28 29 31 34 36 35 37 35 34 35 34 35 34 34 35 34 34 34 35 36 36 36 37 39 40 40 41 43 42
40 38 36 36 33 31 29 28 26 28 27 28 28 29 30 31 33 35 35 36 37 37 37 38 38 39 38 37 37 37 38 38 38 39 40 40 41 43 44 45 46 48 48
41 41 40 38 38 39 36 34 31 30 30 32 31 32 33 34 35 36 37 38 39 39 41 42 43 43 42 41 41 42 42 42 42 42 41 41 42 42 43 45 47 47 48
42 43 43 43 43 40 41 41 39 38 37 37 38 40 39 38 40 40 40 41 43 44 45 46 47 47 47 47 47 47 47 47 47 46 44 44 45 45 45 47 51 51 51
46 47 46 46 45 44 44 44 45 46 45 42 43 43 42 42 43 43 43 44 45 46 47 48 49 49 50 49 50 51 51 52 52 52 52 51 51 52 53 53 54 54 55
49 50 50 50 49 46 45 46 47 47 46 48 49 48 46 47 47 48 48 47 47 47 49 50 51 51 52 52 53 55 55 56 56 57 57 57 57 57 58 55 57 57 58
51 51 51 51 52 51 50 48 46 47 51 54 53 53 53 53 52 52 51 50 51 51 51 52 52 51 51 52 53 54 55 56 57 57 59 59 60 59 60 60 61 62 63
51 51 52 52 54 54 54 53 51 50 50 51 54 56 57 56 56 55 55 57 57 57 57 56 55 55 55 56 56 56 55 55 55 56 57 59 60 59 61 63 64 65 66
53 53 53 54 55 55 55 55 54 54 53 53 53 55 57 59 60 60 60 61 60 60 61 60 61 61 61 61 59 59 59 59 59 59 59 58 58 58 60 62 65 66 68
Wind_Direction
299 300 310 296 262 246 239 240 236 231 236 238 242 232 209 232 213 198 203 220 238 193 196 197 196 189 187 184 176 169 171 170 174 182 186 185 183 184 190 193 198 189 192
293 300 308 292 278 256 237 236 232 232 233 237 242 234 205 218 200 196 215 221 203 191 192 198 193 192 194 193 188 172 179 186 176 182 184 186 193 193 202 205 201 198 200
299 286 311 297 280 264 240 237 228 228 231 233 236 231 233 225 223 231 220 217 196 194 194 196 193 195 196 194 197 203 189 193 186 179 178 183 186 191 193 198 206 207 204
300 295 301 293 271 262 241 239 238 233 232 232 234 229 233 232 237 243 194 210 202 201 198 196 193 194 196 196 200 210 201 197 189 188 185 187 187 193 193 194 202 202 196
308 307 311 288 274 259 236 231 237 234 230 230 230 219 229 233 236 240 242 227 216 203 200 198 196 195 199 205 207 209 208 201 198 196 197 199 200 195 191 198 201 205 208
312 314 305 291 271 255 237 224 234 232 231 212 223 219 231 223 239 256 243 219 244 204 197 198 196 200 204 207 211 214 213 213 211 203 206 208 207 210 210 211 206 203 202
311 314 303 295 274 244 223 211 200 217 232 235 215 209 217 229 245 253 241 248 223 192 195 197 200 204 207 210 213 213 217 222 219 216 216 213 210 213 213 211 213 212 214
312 307 309 295 264 235 224 226 249 203 209 222 228 218 228 228 235 256 244 233 211 194 196 199 202 207 209 212 213 216 223 226 225 225 227 222 220 223 223 225 225 225 224
308 303 309 286 263 244 242 229 234 195 220 216 227 231 235 240 245 238 242 216 195 195 197 201 205 208 212 214 217 218 222 226 226 225 227 229 226 225 228 232 234 231 223
298 300 299 277 263 249 249 241 227 271 258 229 232 229 233 240 237 223 227 217 204 198 196 205 208 210 215 217 218 219 222 225 227 227 228 228 229 225 218 217 216 217 218
288 286 285 294 260 254 236 249 246 244 266 225 231 239 237 243 239 216 209 206 203 187 203 207 211 214 217 220 223 223 224 222 222 219 217 216 217 216 218 219 222 220 220
284 280 280 280 279 252 245 250 250 250 258 228 247 229 232 231 224 215 211 205 194 200 207 213 215 218 220 222 223 220 218 214 213 216 218 223 226 228 231 230 226 224 226
290 284 282 276 278 282 238 239 247 264 246 231 235 223 227 221 222 214 207 205 203 204 212 218 220 220 218 218 218 219 219 219 222 225 227 230 233 233 233 231 229 232 237
291 289 283 277 273 271 273 244 226 245 253 220 200 189 189 190 207 196 207 214 218 217 220 221 220 218 215 217 220 225 227 231 232 237 238 238 239 235 232 233 235 240 248
279 280 279 275 271 265 263 260 262 269 259 250 254 241 217 199 210 203 210 222 224 223 224 223 221 221 219 222 225 229 232 237 236 240 242 244 241 239 238 239 241 246 254
267 268 269 269 264 269 262 256 250 251 256 253 247 243 233 221 218 234 231 233 236 231 229 225 222 224 226 230 233 235 235 239 242 242 243 241 242 243 245 245 247 251 255
266 267 267 265 267 259 261 260 256 250 249 248 246 244 240 236 234 233 238 238 240 236 230 228 227 230 233 235 239 241 243 245 248 247 246 245 243 243 245 248 249 251 252
269 264 263 265 262 263 262 259 260 261 259 255 249 245 242 242 239 237 235 236 236 234 232 232 232 235 237 240 243 245 247 248 249 250 250 249 248 248 248 249 250 254 258
274 274 271 265 262 260 257 255 255 257 259 258 257 254 252 247 244 242 239 236 236 235 235 236 237 239 240 243 245 248 251 252 254 255 256 256 255 254 255 255 257 260 263
271 272 272 270 266 261 258 256 252 249 250 254 256 256 253 252 251 246 244 240 240 241 241 240 241 244 247 249 251 252 253 255 256 256 257 257 256 256 258 260 261 261 263
264 267 269 267 265 262 261 258 256 252 246 244 247 251 252 252 252 252 251 248 246 245 245 245 246 247 249 250 253 256 256 256 257 258 258 258 258 259 260 263 264 265 265
261 262 264 265 264 263 262 260 259 256 254 252 250 248 250 253 256 256 254 253 253 253 254 254 254 254 256 258 259 259 261 261 261 262 261 260 260 261 263 265 266 266 266
260 262 263 264 263 264 265 263 260 261 263 258 255 253 251 250 250 251 252 253 255 256 257 258 260 260 261 262 263 264 264 265 265 264 264 264 263 263 264 265 267 267 268
259 260 260 261 262 263 263 263 261 257 256 259 260 258 257 255 254 254 255 256 255 256 258 259 260 261 262 263 264 265 267 267 267 267 268 267 267 267 267 268 268 268 268
257 257 258 259 260 260 261 261 261 259 256 254 258 261 260 259 258 258 258 256 257 258 258 259 259 259 260 261 263 265 266 267 269 270 269 270 270 270 270 271 270 271 272
258 258 257 256 256 259 259 259 257 259 260 260 257 255 257 259 259 258 257 256 256 257 258 259 261 262 263 264 264 265 266 266 266 267 268 268 268 271 271 271 272 272 273
Height
5772 5770 5767 5764 5762 5763 5765 5766 5768 5771 5774 5775 5777 5780 5776 5781 5785 5789 5791 5794 5796 5799 5802 5805 5806 5808 5809 5811 5812 5813 5814 5816 5818 5820 5821 5822 5823 5824 5825 5827 5828 5828 5829
5769 5766 5763 5760 5758 5758 5759 5761 5763 5766 5769 5771 5773 5775 5773 5778 5783 5786 5789 5791 5792 5797 5800 5803 5804 5806 5808 5810 5812 5812 5814 5815 5816 5819 5820 5821 5822 5823 5825 5826 5827 5828 5830
5765 5762 5759 5757 5754 5754 5754 5756 5758 5762 5765 5767 5768 5769 5770 5774 5779 5782 5786 5788 5791 5795 5798 5800 5802 5805 5808 5809 5811 5813 5813 5815 5816 5818 5819 5820 5821 5823 5824 5826 5827 5829 5829
5760 5758 5755 5751 5748 5749 5751 5753 5756 5759 5761 5764 5765 5765 5768 5771 5774 5773 5780 5785 5788 5792 5795 5798 5800 5803 5806 5808 5810 5811 5812 5814 5815 5817 5818 5819 5820 5822 5824 5825 5827 5828 5829
5755 5752 5750 5746 5744 5744 5746 5748 5750 5754 5757 5759 5759 5763 5765 5769 5770 5774 5777 5781 5783 5788 5792 5795 5798 5801 5805 5807 5808 5810 5811 5813 5813 5815 5817 5818 5819 5821 5822 5824 5826 5828 5830
5752 5749 5746 5744 5740 5740 5743 5747 5748 5749 5751 5747 5755 5761 5761 5764 5768 5771 5773 5777 5779 5782 5789 5793 5797 5799 5802 5804 5806 5808 5809 5811 5812 5814 5815 5818 5819 5820 5822 5824 5825 5827 5828
5750 5747 5744 5741 5738 5738 5741 5745 5744 5745 5745 5750 5753 5758 5760 5766 5767 5769 5771 5774 5777 5780 5786 5791 5794 5797 5799 5802 5804 5806 5808 5810 5811 5812 5814 5816 5818 5819 5821 5823 5825 5826 5827
5747 5745 5742 5740 5736 5737 5739 5742 5745 5744 5740 5747 5752 5756 5759 5762 5764 5766 5767 5769 5773 5778 5784 5787 5790 5794 5796 5799 5801 5804 5806 5807 5809 5810 5813 5814 5816 5818 5820 5822 5823 5824 5825
5744 5743 5742 5740 5736 5736 5738 5741 5743 5742 5745 5749 5753 5755 5756 5759 5761 5762 5763 5766 5770 5776 5781 5785 5788 5791 5794 5796 5799 5800 5803 5805 5807 5808 5810 5812 5813 5815 5817 5819 5821 5822 5823
5741 5741 5740 5738 5737 5736 5734 5736 5737 5738 5742 5747 5750 5753 5755 5756 5758 5760 5762 5765 5768 5773 5778 5781 5784 5787 5790 5793 5796 5798 5800 5802 5804 5805 5807 5809 5812 5813 5814 5816 5818 5820 5822
5739 5738 5738 5737 5736 5734 5735 5734 5735 5738 5740 5742 5745 5748 5750 5753 5755 5758 5760 5763 5766 5769 5774 5778 5781 5783 5786 5789 5792 5794 5797 5799 5801 5802 5804 5806 5809 5812 5813 5814 5815 5817 5819
5736 5735 5735 5734 5734 5733 5733 5733 5734 5736 5736 5740 5741 5744 5745 5748 5750 5753 5757 5760 5762 5767 5771 5775 5777 5780 5783 5785 5788 5791 5794 5795 5798 5799 5802 5804 5806 5808 5809 5811 5813 5815 5816
5733 5732 5732 5733 5732 5732 5732 5733 5734 5735 5735 5735 5737 5739 5742 5745 5748 5752 5755 5758 5762 5765 5768 5771 5775 5777 5779 5781 5785 5788 5790 5792 5795 5797 5799 5801 5802 5804 5806 5808 5810 5812 5813
5731 5731 5731 5730 5730 5731 5731 5730 5732 5733 5733 5733 5735 5737 5740 5743 5747 5749 5753 5756 5759 5762 5765 5768 5771 5773 5775 5778 5780 5784 5786 5788 5790 5793 5795 5796 5798 5800 5803 5804 5805 5807 5809
5725 5727 5726 5727 5728 5728 5729 5728 5730 5731 5733 5735 5735 5737 5740 5742 5745 5748 5750 5753 5756 5759 5762 5764 5766 5769 5771 5774 5776 5779 5781 5784 5786 5788 5790 5792 5794 5796 5797 5799 5801 5802 5804
5717 5719 5720 5721 5723 5724 5726 5727 5728 5728 5731 5733 5735 5737 5739 5741 5743 5745 5747 5750 5752 5755 5757 5759 5762 5765 5767 5770 5772 5774 5776 5778 5781 5783 5784 5787 5789 5790 5792 5793 5794 5796 5797
5713 5714 5715 5716 5717 5720 5720 5722 5724 5726 5727 5728 5731 5733 5735 5736 5738 5740 5742 5745 5748 5749 5752 5755 5757 5760 5763 5764 5767 5769 5771 5772 5774 5777 5779 5781 5783 5785 5786 5787 5788 5790 5791
5708 5709 5710 5712 5714 5714 5715 5716 5717 5718 5721 5724 5725 5726 5728 5730 5732 5735 5736 5738 5742 5745 5747 5749 5752 5755 5756 5759 5761 5762 5764 5766 5768 5770 5773 5773 5775 5777 5779 5780 5782 5783 5783
5702 5703 5705 5706 5706 5707 5709 5711 5712 5713 5716 5717 5719 5720 5721 5724 5726 5729 5730 5731 5734 5737 5740 5743 5746 5748 5749 5752 5754 5755 5757 5759 5760 5762 5763 5765 5767 5768 5770 5772 5773 5774 5774
5694 5695 5698 5699 5700 5702 5703 5704 5706 5707 5709 5710 5712 5713 5715 5717 5719 5721 5724 5727 5728 5730 5732 5734 5736 5738 5740 5743 5744 5747 5749 5750 5751 5754 5755 5757 5758 5759 5761 5763 5764 5764 5765
5686 5687 5687 5689 5691 5692 5694 5696 5697 5698 5699 5701 5703 5705 5707 5709 5713 5715 5717 5719 5721 5724 5725 5727 5729 5730 5733 5735 5736 5738 5740 5742 5744 5745 5745 5747 5749 5750 5751 5752 5754 5754 5754
5676 5676 5678 5680 5681 5683 5685 5687 5689 5691 5693 5695 5697 5698 5699 5701 5702 5704 5706 5709 5712 5713 5715 5717 5720 5722 5725 5725 5727 5729 5730 5732 5734 5734 5735 5735 5737 5739 5740 5740 5741 5742 5743
5665 5667 5667 5669 5671 5673 5674 5677 5680 5682 5684 5686 5687 5688 5690 5691 5691 5693 5695 5697 5699 5701 5705 5707 5710 5711 5713 5714 5715 5717 5717 5720 5720 5722 5724 5724 5725 5726 5728 5727 5728 5730 5731
5654 5655 5656 5657 5659 5661 5663 5665 5668 5671 5673 5675 5675 5677 5679 5681 5683 5683 5685 5686 5688 5690 5693 5695 5697 5697 5700 5701 5702 5704 5704 5706 5708 5709 5710 5711 5712 5712 5713 5713 5714 5716 5717
5641 5643 5644 5645 5646 5648 5649 5652 5655 5656 5657 5660 5663 5665 5666 5668 5669 5671 5672 5675 5677 5678 5680 5682 5683 5685 5687 5689 5690 5691 5692 5693 5694 5696 5698 5698 5698 5699 5698 5700 5700 5701 5701
5627 5629 5631 5632 5633 5634 5636 5638 5640 5642 5644 5646 5648 5650 5652 5654 5655 5657 5659 5661 5662 5664 5666 5668 5671 5672 5674 5675 5676 5677 5678 5679 5680 5682 5682 5684 5684 5683 5683 5684 5684 5684 5685